Погода в Хейстингсе

Новая Зеландия     39°37′57″S   176°50′00″E
темп.,
°C
ветер,
м/с
пор.,
м/с
влажн.,
%
обл.,
%
осадки,
мм/ч
давл.,
гПа
погр.,
м
12 апреля, пн
пн1200:00+14юз11940 0.0 101213
03:00+13сз00940 0.0 101211
06:00+12ссз119582 0.0 101311
09:00+18с2371100 0.0 1013301
12:00+24ссв2454100 0.0 1012764
15:00+24св465799 0.0 1009538
18:00+18всв1192100 0.0 100914
21:00+16зсз0096100 0.0 101011
13 апреля, вт
вт1300:00+16св009695 0.0 100911
03:00+15с119611 0.0 100813
06:00+15зюз009743 0.0 100812
09:00+20ююз017548 0.0 1007292
12:00+26ссв364525 0.0 10051999
15:00+27ссз463122 0.1 10012679
18:00+18сз126268 0.2 1002105
21:00+16сз116790 0.1 100317
14 апреля, ср
ср1400:00+12зюз11830 0.1 100318
03:00+10ссз11840 0.0 100312
06:00+9всв11800 0.0 100311
09:00+16ссз23510 0.0 1004458
12:00+21св043584 0.0 10022060
15:00+16св2462100 0.1 1001244
18:00+12ссв117885 0.2 100210
21:00+10юз22885 0.0 100416
15 апреля, чт
чт1500:00+9юз22910 0.0 100523
03:00+8юз11940 0.0 100512
06:00+7з11940 0.0 100511
09:00+15с12585 0.0 1005230
12:00+18з4749100 0.0 10051489
15:00+20з510410 0.0 10031834
18:00+15ссз246094 0.0 100488
21:00+13сз11732 0.0 100512
16 апреля, пт
пт1600:00+11сз11860 0.0 100612
03:00+10зсз11920 0.0 100511
06:00+10с11920 0.0 100512
09:00+18зсз15520 0.0 1006533
12:00+23з610310 0.0 10052024
15:00+23з69340 0.0 10042105
18:00+16з22611 0.0 100523
21:00+13сз24792 0.0 100780